Year,Month,Day,Hour,Minute,Value (Times are PST for temperature in C)
2014,04,14,00,00,4.50
2014,04,14,00,01,4.50
2014,04,14,00,02,4.40
2014,04,14,00,03,4.40
2014,04,14,00,04,4.40
2014,04,14,00,05,4.40
2014,04,14,00,06,4.40
2014,04,14,00,07,4.40
2014,04,14,00,08,4.40
2014,04,14,00,09,4.40
2014,04,14,00,10,4.40
2014,04,14,00,11,4.40
2014,04,14,00,12,4.40
2014,04,14,00,13,4.40
2014,04,14,00,14,4.30
2014,04,14,00,15,4.30
2014,04,14,00,16,4.30
2014,04,14,00,17,4.30
2014,04,14,00,18,4.20
2014,04,14,00,19,4.20
2014,04,14,00,20,4.20
2014,04,14,00,21,4.20
2014,04,14,00,22,4.20
2014,04,14,00,23,4.10
2014,04,14,00,24,4.10
2014,04,14,00,25,4.10
2014,04,14,00,26,4.10
2014,04,14,00,27,4.00
2014,04,14,00,28,4.00
2014,04,14,00,29,4.00
2014,04,14,00,30,4.00
2014,04,14,00,31,3.90
2014,04,14,00,32,3.90
2014,04,14,00,33,3.90
2014,04,14,00,34,3.90
2014,04,14,00,35,3.90
2014,04,14,00,36,3.90
2014,04,14,00,37,3.80
2014,04,14,00,38,3.80
2014,04,14,00,39,3.80
2014,04,14,00,40,3.80
2014,04,14,00,41,3.80
2014,04,14,00,42,3.80
2014,04,14,00,43,3.80
2014,04,14,00,44,3.70
2014,04,14,00,45,3.70
2014,04,14,00,46,3.70
2014,04,14,00,47,3.70
2014,04,14,00,48,3.70
2014,04,14,00,49,3.80
2014,04,14,00,50,3.80
2014,04,14,00,51,3.80
2014,04,14,00,52,3.80
2014,04,14,00,53,3.80
2014,04,14,00,54,3.80
2014,04,14,00,55,3.80
2014,04,14,00,56,3.80
2014,04,14,00,57,3.80
2014,04,14,00,58,3.80
2014,04,14,00,59,3.80
2014,04,14,01,00,3.80
2014,04,14,01,01,3.80
2014,04,14,01,02,3.80
2014,04,14,01,03,3.80
2014,04,14,01,04,3.70
2014,04,14,01,05,3.70
2014,04,14,01,06,3.70
2014,04,14,01,07,3.70
2014,04,14,01,08,3.70
2014,04,14,01,09,3.70
2014,04,14,01,10,3.70
2014,04,14,01,11,3.70
2014,04,14,01,12,3.70
2014,04,14,01,13,3.70
2014,04,14,01,14,3.70
2014,04,14,01,15,3.70
2014,04,14,01,16,3.60
2014,04,14,01,17,3.60
2014,04,14,01,18,3.60
2014,04,14,01,19,3.60
2014,04,14,01,20,3.60
2014,04,14,01,21,3.60
2014,04,14,01,22,3.60
2014,04,14,01,23,3.60
2014,04,14,01,24,3.50
2014,04,14,01,25,3.50
2014,04,14,01,26,3.50
2014,04,14,01,27,3.50
2014,04,14,01,28,3.40
2014,04,14,01,29,3.40
2014,04,14,01,30,3.40
2014,04,14,01,31,3.40
2014,04,14,01,32,3.40
2014,04,14,01,33,3.40
2014,04,14,01,34,3.40
2014,04,14,01,35,3.40
2014,04,14,01,36,3.40
2014,04,14,01,37,3.40
2014,04,14,01,38,3.40
2014,04,14,01,39,3.40
2014,04,14,01,40,3.30
2014,04,14,01,41,3.30
2014,04,14,01,42,3.30
2014,04,14,01,43,3.30
2014,04,14,01,44,3.30
2014,04,14,01,45,3.30
2014,04,14,01,46,3.30
2014,04,14,01,47,3.30
2014,04,14,01,48,3.20
2014,04,14,01,49,3.20
2014,04,14,01,50,3.20
2014,04,14,01,51,3.20
2014,04,14,01,52,3.20
2014,04,14,01,53,3.20
2014,04,14,01,54,3.10
2014,04,14,01,55,3.10
2014,04,14,01,56,3.10
2014,04,14,01,57,3.00
2014,04,14,01,58,3.00
2014,04,14,01,59,3.00
2014,04,14,02,00,2.90
2014,04,14,02,01,2.90
2014,04,14,02,02,2.90
2014,04,14,02,03,2.90
2014,04,14,02,04,2.90
2014,04,14,02,05,2.80
2014,04,14,02,06,2.80
2014,04,14,02,07,2.80
2014,04,14,02,08,2.80
2014,04,14,02,09,2.80
2014,04,14,02,10,2.80
2014,04,14,02,11,2.80
2014,04,14,02,12,2.70
2014,04,14,02,13,2.70
2014,04,14,02,14,2.70
2014,04,14,02,15,2.70
2014,04,14,02,16,2.70
2014,04,14,02,17,2.70
2014,04,14,02,18,2.70
2014,04,14,02,19,2.70
2014,04,14,02,20,2.70
2014,04,14,02,21,2.60
2014,04,14,02,22,2.60
2014,04,14,02,23,2.60
2014,04,14,02,24,2.60
2014,04,14,02,25,2.50
2014,04,14,02,26,2.50
2014,04,14,02,27,2.50
2014,04,14,02,28,2.40
2014,04,14,02,29,2.40
2014,04,14,02,30,2.40
2014,04,14,02,31,2.40
2014,04,14,02,32,2.30
2014,04,14,02,33,2.30
2014,04,14,02,34,2.30
2014,04,14,02,35,2.30
2014,04,14,02,36,2.30
2014,04,14,02,37,2.20
2014,04,14,02,38,2.20
2014,04,14,02,39,2.20
2014,04,14,02,40,2.20
2014,04,14,02,41,2.20
2014,04,14,02,42,2.20
2014,04,14,02,43,2.20
2014,04,14,02,44,2.20
2014,04,14,02,45,2.10
2014,04,14,02,46,2.10
2014,04,14,02,47,2.10
2014,04,14,02,48,2.10
2014,04,14,02,49,2.00
2014,04,14,02,50,2.00
2014,04,14,02,51,1.90
2014,04,14,02,52,1.90
2014,04,14,02,53,1.90
2014,04,14,02,54,1.90
2014,04,14,02,55,2.00
2014,04,14,02,56,2.00
2014,04,14,02,57,2.00
2014,04,14,02,58,2.00
2014,04,14,02,59,2.00
2014,04,14,03,00,1.90
2014,04,14,03,01,1.90
2014,04,14,03,02,1.90
2014,04,14,03,03,1.90
2014,04,14,03,04,1.90
2014,04,14,03,05,1.90
2014,04,14,03,06,1.90
2014,04,14,03,07,1.90
2014,04,14,03,08,1.90
2014,04,14,03,09,1.90
2014,04,14,03,10,1.90
2014,04,14,03,11,1.90
2014,04,14,03,12,1.90
2014,04,14,03,13,1.90
2014,04,14,03,14,1.80
2014,04,14,03,15,1.80
2014,04,14,03,16,1.80
2014,04,14,03,17,1.80
2014,04,14,03,18,1.80
2014,04,14,03,19,1.70
2014,04,14,03,20,1.70
2014,04,14,03,21,1.70
2014,04,14,03,22,1.70
2014,04,14,03,23,1.70
2014,04,14,03,24,1.70
2014,04,14,03,25,1.60
2014,04,14,03,26,1.60
2014,04,14,03,27,1.60
2014,04,14,03,28,1.60
2014,04,14,03,29,1.60
2014,04,14,03,30,1.50
2014,04,14,03,31,1.50
2014,04,14,03,32,1.40
2014,04,14,03,33,1.40
2014,04,14,03,34,1.40
2014,04,14,03,35,1.40
2014,04,14,03,36,1.40
2014,04,14,03,37,1.30
2014,04,14,03,38,1.30
2014,04,14,03,39,1.30
2014,04,14,03,40,1.30
2014,04,14,03,41,1.30
2014,04,14,03,42,1.30
2014,04,14,03,43,1.30
2014,04,14,03,44,1.30
2014,04,14,03,45,1.20
2014,04,14,03,46,1.20
2014,04,14,03,47,1.20
2014,04,14,03,48,1.20
2014,04,14,03,49,1.20
2014,04,14,03,50,1.20
2014,04,14,03,51,1.20
2014,04,14,03,52,1.20
2014,04,14,03,53,1.20
2014,04,14,03,54,1.20
2014,04,14,03,55,1.20
2014,04,14,03,56,1.20
2014,04,14,03,57,1.20
2014,04,14,03,58,1.20
2014,04,14,03,59,1.20
2014,04,14,04,00,1.20
2014,04,14,04,01,1.20
2014,04,14,04,02,1.20
2014,04,14,04,03,1.20
2014,04,14,04,04,1.20
2014,04,14,04,05,1.20
2014,04,14,04,06,1.10
2014,04,14,04,07,1.10
2014,04,14,04,08,1.10
2014,04,14,04,09,1.10
2014,04,14,04,10,1.10
2014,04,14,04,11,1.10
2014,04,14,04,12,1.00
2014,04,14,04,13,1.00
2014,04,14,04,14,1.00
2014,04,14,04,15,0.90
2014,04,14,04,16,0.90
2014,04,14,04,17,0.90
2014,04,14,04,18,0.90
2014,04,14,04,19,0.90
2014,04,14,04,20,0.90
2014,04,14,04,21,0.80
2014,04,14,04,22,0.80
2014,04,14,04,23,0.80
2014,04,14,04,24,0.80
2014,04,14,04,25,0.80
2014,04,14,04,26,0.80
2014,04,14,04,27,0.80
2014,04,14,04,28,0.80
2014,04,14,04,29,0.70
2014,04,14,04,30,0.70
2014,04,14,04,31,0.70
2014,04,14,04,32,0.70
2014,04,14,04,33,0.70
2014,04,14,04,34,0.70
2014,04,14,04,35,0.70
2014,04,14,04,36,0.80
2014,04,14,04,37,0.80
2014,04,14,04,38,0.80
2014,04,14,04,39,0.80
2014,04,14,04,40,0.80
2014,04,14,04,41,0.80
2014,04,14,04,42,0.70
2014,04,14,04,43,0.70
2014,04,14,04,44,0.70
2014,04,14,04,45,0.70
2014,04,14,04,46,0.70
2014,04,14,04,47,0.70
2014,04,14,04,48,0.80
2014,04,14,04,49,0.70
2014,04,14,04,50,0.80
2014,04,14,04,51,0.80
2014,04,14,04,52,0.70
2014,04,14,04,53,0.70
2014,04,14,04,54,0.80
2014,04,14,04,55,0.80
2014,04,14,04,56,0.80
2014,04,14,04,57,0.80
2014,04,14,04,58,0.80
2014,04,14,04,59,0.80
2014,04,14,05,00,0.80
2014,04,14,05,01,0.80
2014,04,14,05,02,0.80
2014,04,14,05,03,0.80
2014,04,14,05,04,0.70
2014,04,14,05,05,0.70
2014,04,14,05,06,0.70
2014,04,14,05,07,0.70
2014,04,14,05,08,0.70
2014,04,14,05,09,0.70
2014,04,14,05,10,0.70
2014,04,14,05,11,0.70
2014,04,14,05,12,0.70
2014,04,14,05,13,0.60
2014,04,14,05,14,0.60
2014,04,14,05,15,0.60
2014,04,14,05,16,0.60
2014,04,14,05,17,0.60
2014,04,14,05,18,0.60
2014,04,14,05,19,0.60
2014,04,14,05,20,0.60
2014,04,14,05,21,0.60
2014,04,14,05,22,0.60
2014,04,14,05,23,0.60
2014,04,14,05,24,0.60
2014,04,14,05,25,0.60
2014,04,14,05,26,0.60
2014,04,14,05,27,0.60
2014,04,14,05,28,0.60
2014,04,14,05,29,0.60
2014,04,14,05,30,0.60
2014,04,14,05,31,0.60
2014,04,14,05,32,0.60
2014,04,14,05,33,0.60
2014,04,14,05,34,0.70
2014,04,14,05,35,0.70
2014,04,14,05,36,0.70
2014,04,14,05,37,0.70
2014,04,14,05,38,0.70
2014,04,14,05,39,0.70
2014,04,14,05,40,0.70
2014,04,14,05,41,0.70
2014,04,14,05,42,0.70
2014,04,14,05,43,0.70
2014,04,14,05,44,0.70
2014,04,14,05,45,0.70
2014,04,14,05,46,0.70
2014,04,14,05,47,0.70
2014,04,14,05,48,0.70
2014,04,14,05,49,0.70
2014,04,14,05,50,0.60
2014,04,14,05,51,0.60
2014,04,14,05,52,0.60
2014,04,14,05,53,0.60
2014,04,14,05,54,0.60
2014,04,14,05,55,0.60
2014,04,14,05,56,0.60
2014,04,14,05,57,0.60
2014,04,14,05,58,0.60
2014,04,14,05,59,0.60
2014,04,14,06,00,0.70
2014,04,14,06,01,0.70
2014,04,14,06,02,0.70
2014,04,14,06,03,0.70
2014,04,14,06,04,0.60
2014,04,14,06,05,0.60
2014,04,14,06,06,0.60
2014,04,14,06,07,0.60
2014,04,14,06,08,0.60
2014,04,14,06,09,0.60
2014,04,14,06,10,0.60
2014,04,14,06,11,0.60
2014,04,14,06,12,0.60
2014,04,14,06,13,0.70
2014,04,14,06,14,0.70
2014,04,14,06,15,0.70
2014,04,14,06,16,0.70
2014,04,14,06,17,0.70
2014,04,14,06,18,0.70
2014,04,14,06,19,0.70
2014,04,14,06,20,0.70
2014,04,14,06,21,0.70
2014,04,14,06,22,0.80
2014,04,14,06,23,0.80
2014,04,14,06,24,0.80
2014,04,14,06,25,0.80
2014,04,14,06,26,0.80
2014,04,14,06,27,0.80
2014,04,14,06,28,0.80
2014,04,14,06,29,0.80
2014,04,14,06,30,0.90
2014,04,14,06,31,0.90
2014,04,14,06,32,0.90
2014,04,14,06,33,0.90
2014,04,14,06,34,0.90
2014,04,14,06,35,1.00
2014,04,14,06,36,1.00
2014,04,14,06,37,1.10
2014,04,14,06,38,1.10
2014,04,14,06,39,1.10
2014,04,14,06,40,1.20
2014,04,14,06,41,1.20
2014,04,14,06,42,1.30
2014,04,14,06,43,1.30
2014,04,14,06,44,1.30
2014,04,14,06,45,1.30
2014,04,14,06,46,1.40
2014,04,14,06,47,1.40
2014,04,14,06,48,1.40
2014,04,14,06,49,1.50
2014,04,14,06,50,1.50
2014,04,14,06,51,1.50
2014,04,14,06,52,1.60
2014,04,14,06,53,1.60
2014,04,14,06,54,1.60
2014,04,14,06,55,1.60
2014,04,14,06,56,1.60
2014,04,14,06,57,1.70
2014,04,14,06,58,1.70
2014,04,14,06,59,1.70
2014,04,14,07,00,1.70
2014,04,14,07,01,1.70
2014,04,14,07,02,1.80
2014,04,14,07,03,1.80
2014,04,14,07,04,1.80
2014,04,14,07,05,1.80
2014,04,14,07,06,1.80
2014,04,14,07,07,1.90
2014,04,14,07,08,1.90
2014,04,14,07,09,1.90
2014,04,14,07,10,1.90
2014,04,14,07,11,2.00
2014,04,14,07,12,2.00
2014,04,14,07,13,2.00
2014,04,14,07,14,2.10
2014,04,14,07,15,2.10
2014,04,14,07,16,2.10
2014,04,14,07,17,2.10
2014,04,14,07,18,2.10
2014,04,14,07,19,2.10
2014,04,14,07,20,2.10
2014,04,14,07,21,2.20
2014,04,14,07,22,2.20
2014,04,14,07,23,2.20
2014,04,14,07,24,2.20
2014,04,14,07,25,2.20
2014,04,14,07,26,2.20
2014,04,14,07,27,2.30
2014,04,14,07,28,2.30
2014,04,14,07,29,2.30
2014,04,14,07,30,2.30
2014,04,14,07,31,2.30
2014,04,14,07,32,2.40
2014,04,14,07,33,2.40
2014,04,14,07,34,2.40
2014,04,14,07,35,2.40
2014,04,14,07,36,2.40
2014,04,14,07,37,2.40
2014,04,14,07,38,2.50
2014,04,14,07,39,2.50
2014,04,14,07,40,2.50
2014,04,14,07,41,2.60
2014,04,14,07,42,2.60
2014,04,14,07,43,2.60
2014,04,14,07,44,2.60
2014,04,14,07,45,2.60
2014,04,14,07,46,2.70
2014,04,14,07,47,2.70
2014,04,14,07,48,2.70
2014,04,14,07,49,2.70
2014,04,14,07,50,2.80
2014,04,14,07,51,2.80
2014,04,14,07,52,2.80
2014,04,14,07,53,2.90
2014,04,14,07,54,2.90
2014,04,14,07,55,2.90
2014,04,14,07,56,2.90
2014,04,14,07,57,3.00
2014,04,14,07,58,3.00
2014,04,14,07,59,3.10
2014,04,14,08,00,3.10
2014,04,14,08,01,3.10
2014,04,14,08,02,3.20
2014,04,14,08,03,3.20
2014,04,14,08,04,3.20
2014,04,14,08,05,3.30
2014,04,14,08,06,3.30
2014,04,14,08,07,3.30
2014,04,14,08,08,3.40
2014,04,14,08,09,3.40
2014,04,14,08,10,3.40
2014,04,14,08,11,3.50
2014,04,14,08,12,3.50
2014,04,14,08,13,3.50
2014,04,14,08,14,3.60
2014,04,14,08,15,3.60
2014,04,14,08,16,3.60
2014,04,14,08,17,3.60
2014,04,14,08,18,3.60
2014,04,14,08,19,3.70
2014,04,14,08,20,3.70
2014,04,14,08,21,3.70
2014,04,14,08,22,3.70
2014,04,14,08,23,3.70
2014,04,14,08,24,3.80
2014,04,14,08,25,3.80
2014,04,14,08,26,3.80
2014,04,14,08,27,3.80
2014,04,14,08,28,3.90
2014,04,14,08,29,3.90
2014,04,14,08,30,4.00
2014,04,14,08,31,4.00
2014,04,14,08,32,4.10
2014,04,14,08,33,4.20
2014,04,14,08,34,4.20
2014,04,14,08,35,4.30
2014,04,14,08,36,4.30
2014,04,14,08,37,4.30
2014,04,14,08,38,4.40
2014,04,14,08,39,4.40
2014,04,14,08,40,4.40
2014,04,14,08,41,4.40
2014,04,14,08,42,4.40
2014,04,14,08,43,4.50
2014,04,14,08,44,4.50
2014,04,14,08,45,4.50
2014,04,14,08,46,4.60
2014,04,14,08,47,4.60
2014,04,14,08,48,4.70
2014,04,14,08,49,4.70
2014,04,14,08,50,4.70
2014,04,14,08,51,4.70
2014,04,14,08,52,4.70
2014,04,14,08,53,4.80
2014,04,14,08,54,4.80
2014,04,14,08,55,4.80
2014,04,14,08,56,4.80
2014,04,14,08,57,4.90
2014,04,14,08,58,4.90
2014,04,14,08,59,4.90
2014,04,14,09,00,4.90
2014,04,14,09,01,5.00
2014,04,14,09,02,5.00
2014,04,14,09,03,5.10
2014,04,14,09,04,5.10
2014,04,14,09,05,5.10
2014,04,14,09,06,5.20
2014,04,14,09,07,5.20
2014,04,14,09,08,5.30
2014,04,14,09,09,5.30
2014,04,14,09,10,5.30
2014,04,14,09,11,5.40
2014,04,14,09,12,5.40
2014,04,14,09,13,5.40
2014,04,14,09,14,5.50
2014,04,14,09,15,5.50
2014,04,14,09,16,5.50
2014,04,14,09,17,5.60
2014,04,14,09,18,5.60
2014,04,14,09,19,5.60
2014,04,14,09,20,5.70
2014,04,14,09,21,5.70
2014,04,14,09,22,5.80
2014,04,14,09,23,5.80
2014,04,14,09,24,5.90
2014,04,14,09,25,5.90
2014,04,14,09,26,6.00
2014,04,14,09,27,6.00
2014,04,14,09,28,6.10
2014,04,14,09,29,6.10
2014,04,14,09,30,6.20
2014,04,14,09,31,6.30
2014,04,14,09,32,6.30
2014,04,14,09,33,6.40
2014,04,14,09,34,6.50
2014,04,14,09,35,6.50
2014,04,14,09,36,6.60
2014,04,14,09,37,6.70
2014,04,14,09,38,6.70
2014,04,14,09,39,6.80
2014,04,14,09,40,6.90
2014,04,14,09,41,6.90
2014,04,14,09,42,7.00
2014,04,14,09,43,7.10
2014,04,14,09,44,7.10
2014,04,14,09,45,7.20
2014,04,14,09,46,7.20
2014,04,14,09,47,7.30
2014,04,14,09,48,7.30
2014,04,14,09,49,7.40
2014,04,14,09,50,7.50
2014,04,14,09,51,7.60
2014,04,14,09,52,7.60
2014,04,14,09,53,7.70
2014,04,14,09,54,7.80
2014,04,14,09,55,7.80
2014,04,14,09,56,7.80
2014,04,14,09,57,7.90
2014,04,14,09,58,7.90
2014,04,14,09,59,8.00
2014,04,14,10,00,8.00
2014,04,14,10,01,8.10
2014,04,14,10,02,8.10
2014,04,14,10,03,8.20
2014,04,14,10,04,8.20
2014,04,14,10,05,8.20
2014,04,14,10,06,8.20
2014,04,14,10,07,8.20
2014,04,14,10,08,8.20
2014,04,14,10,09,8.30
2014,04,14,10,10,8.20
2014,04,14,10,11,8.30
2014,04,14,10,12,8.30
2014,04,14,10,13,8.30
2014,04,14,10,14,8.30
2014,04,14,10,15,8.30
2014,04,14,10,16,8.30
2014,04,14,10,17,8.30
2014,04,14,10,18,8.40
2014,04,14,10,19,8.40
2014,04,14,10,20,8.40
2014,04,14,10,21,8.50
2014,04,14,10,22,8.50
2014,04,14,10,23,8.60
2014,04,14,10,24,8.60
2014,04,14,10,25,8.60
2014,04,14,10,26,8.70
2014,04,14,10,27,8.70
2014,04,14,10,28,8.70
2014,04,14,10,29,8.70
2014,04,14,10,30,8.70
2014,04,14,10,31,8.80
2014,04,14,10,32,8.80
2014,04,14,10,33,8.80
2014,04,14,10,34,8.80
2014,04,14,10,35,8.80
2014,04,14,10,36,8.90
2014,04,14,10,37,8.90
2014,04,14,10,38,8.90
2014,04,14,10,39,8.90
2014,04,14,10,40,9.00
2014,04,14,10,41,9.00
2014,04,14,10,42,9.10
2014,04,14,10,43,9.10
2014,04,14,10,44,9.10
2014,04,14,10,45,9.10
2014,04,14,10,46,9.20
2014,04,14,10,47,9.20
2014,04,14,10,48,9.20
2014,04,14,10,49,9.20
2014,04,14,10,50,9.30
2014,04,14,10,51,9.30
2014,04,14,10,52,9.30
2014,04,14,10,53,9.40
2014,04,14,10,54,9.40
2014,04,14,10,55,9.40
2014,04,14,10,56,9.40
2014,04,14,10,57,9.40
2014,04,14,10,58,9.50
2014,04,14,10,59,9.50
2014,04,14,11,00,9.50
2014,04,14,11,01,9.50
2014,04,14,11,02,9.40
2014,04,14,11,03,9.50
2014,04,14,11,04,9.40
2014,04,14,11,05,9.40
2014,04,14,11,06,9.40
2014,04,14,11,07,9.40
2014,04,14,11,08,9.40
2014,04,14,11,09,9.40
2014,04,14,11,10,9.40
2014,04,14,11,11,9.40
2014,04,14,11,12,9.30
2014,04,14,11,13,9.30
2014,04,14,11,14,9.30
2014,04,14,11,15,9.30
2014,04,14,11,16,9.30
2014,04,14,11,17,9.40
2014,04,14,11,18,9.40
2014,04,14,11,19,9.40
2014,04,14,11,20,9.50
2014,04,14,11,21,9.50
2014,04,14,11,22,9.60
2014,04,14,11,23,9.60
2014,04,14,11,24,9.60
2014,04,14,11,25,9.60
2014,04,14,11,26,9.60
2014,04,14,11,27,9.70
2014,04,14,11,28,9.80
2014,04,14,11,29,9.80
2014,04,14,11,30,9.90
2014,04,14,11,31,10.00
2014,04,14,11,32,10.10
2014,04,14,11,33,10.20
2014,04,14,11,34,10.20
2014,04,14,11,35,10.20
2014,04,14,11,36,10.20
2014,04,14,11,37,10.10
2014,04,14,11,38,10.10
2014,04,14,11,39,10.20
2014,04,14,11,40,10.20
2014,04,14,11,41,10.20
2014,04,14,11,42,10.20
2014,04,14,11,43,10.20
2014,04,14,11,44,10.20
2014,04,14,11,45,10.20
2014,04,14,11,46,10.20
2014,04,14,11,47,10.20
2014,04,14,11,48,10.30
2014,04,14,11,49,10.30
2014,04,14,11,50,10.40
2014,04,14,11,51,10.40
2014,04,14,11,52,10.40
2014,04,14,11,53,10.40
2014,04,14,11,54,10.30
2014,04,14,11,55,10.30
2014,04,14,11,56,10.20
2014,04,14,11,57,10.10
2014,04,14,11,58,10.10
2014,04,14,11,59,10.10
2014,04,14,12,00,10.20
2014,04,14,12,01,10.20
2014,04,14,12,02,10.20
2014,04,14,12,03,10.20
2014,04,14,12,04,10.20
2014,04,14,12,05,10.30
2014,04,14,12,06,10.30
2014,04,14,12,07,10.30
2014,04,14,12,08,10.30
2014,04,14,12,09,10.20
2014,04,14,12,10,10.10
2014,04,14,12,11,10.00
2014,04,14,12,12,9.90
2014,04,14,12,13,9.80
2014,04,14,12,14,9.80
2014,04,14,12,15,9.80
2014,04,14,12,16,9.80
2014,04,14,12,17,9.90
2014,04,14,12,18,9.90
2014,04,14,12,19,9.90
2014,04,14,12,20,9.90
2014,04,14,12,21,10.00
2014,04,14,12,22,10.00
2014,04,14,12,23,10.10
2014,04,14,12,24,10.10
2014,04,14,12,25,10.10
2014,04,14,12,26,10.00
2014,04,14,12,27,10.10
2014,04,14,12,28,10.10
2014,04,14,12,29,10.10
2014,04,14,12,30,10.10
2014,04,14,12,31,10.20
2014,04,14,12,32,10.20
2014,04,14,12,33,10.30
2014,04,14,12,34,10.40
2014,04,14,12,35,10.50
2014,04,14,12,36,10.60
2014,04,14,12,37,10.70
2014,04,14,12,38,10.80
2014,04,14,12,39,10.80
2014,04,14,12,40,10.80
2014,04,14,12,41,10.80
2014,04,14,12,42,10.70
2014,04,14,12,43,10.80
2014,04,14,12,44,10.80
2014,04,14,12,45,10.90
2014,04,14,12,46,10.90
2014,04,14,12,47,10.90
2014,04,14,12,48,10.90
2014,04,14,12,49,10.90
2014,04,14,12,50,11.00
2014,04,14,12,51,11.00
2014,04,14,12,52,11.00
2014,04,14,12,53,11.10
2014,04,14,12,54,11.10
2014,04,14,12,55,11.10
2014,04,14,12,56,11.00
2014,04,14,12,57,10.90
2014,04,14,12,58,10.90
2014,04,14,12,59,10.80
2014,04,14,13,00,10.80
2014,04,14,13,01,10.80
2014,04,14,13,02,10.80
2014,04,14,13,03,10.80
2014,04,14,13,04,10.80
2014,04,14,13,05,10.80
2014,04,14,13,06,10.80
2014,04,14,13,07,10.70
2014,04,14,13,08,10.60
2014,04,14,13,09,10.60
2014,04,14,13,10,10.60
2014,04,14,13,11,10.50
2014,04,14,13,12,10.50
2014,04,14,13,13,10.60
2014,04,14,13,14,10.60
2014,04,14,13,15,10.70
2014,04,14,13,16,10.70
2014,04,14,13,17,10.70
2014,04,14,13,18,10.80
2014,04,14,13,19,10.80
2014,04,14,13,20,10.90
2014,04,14,13,21,10.90
2014,04,14,13,22,10.90
2014,04,14,13,23,10.90
2014,04,14,13,24,11.00
2014,04,14,13,25,10.90
2014,04,14,13,26,11.00
2014,04,14,13,27,11.00
2014,04,14,13,28,11.00
2014,04,14,13,29,11.00
2014,04,14,13,30,11.10
2014,04,14,13,31,11.10
2014,04,14,13,32,11.20
2014,04,14,13,33,11.20
2014,04,14,13,34,11.30
2014,04,14,13,35,11.30
2014,04,14,13,36,11.30
2014,04,14,13,37,11.30
2014,04,14,13,38,11.30
2014,04,14,13,39,11.30
2014,04,14,13,40,11.30
2014,04,14,13,41,11.30
2014,04,14,13,42,11.30
2014,04,14,13,43,11.40
2014,04,14,13,44,11.40
2014,04,14,13,45,11.50
2014,04,14,13,46,11.60
2014,04,14,13,47,11.60
2014,04,14,13,48,11.50
2014,04,14,13,49,11.50
2014,04,14,13,50,11.40
2014,04,14,13,51,11.40
2014,04,14,13,52,11.40
2014,04,14,13,53,11.40
2014,04,14,13,54,11.30
2014,04,14,13,55,11.30
2014,04,14,13,56,11.30
2014,04,14,13,57,11.20
2014,04,14,13,58,11.20
2014,04,14,13,59,11.20
2014,04,14,14,00,11.20
2014,04,14,14,01,11.30
2014,04,14,14,02,11.30
2014,04,14,14,03,11.30
2014,04,14,14,04,11.20
2014,04,14,14,05,11.10
2014,04,14,14,06,11.10
2014,04,14,14,07,11.10
2014,04,14,14,08,11.10
2014,04,14,14,09,11.20
2014,04,14,14,10,11.20
2014,04,14,14,11,11.30
2014,04,14,14,12,11.40
2014,04,14,14,13,11.50
2014,04,14,14,14,11.50
2014,04,14,14,15,11.50
2014,04,14,14,16,11.50
2014,04,14,14,17,11.50
2014,04,14,14,18,11.50
2014,04,14,14,19,11.50
2014,04,14,14,20,11.60
2014,04,14,14,21,11.60
2014,04,14,14,22,11.60
2014,04,14,14,23,11.70
2014,04,14,14,24,11.70
2014,04,14,14,25,11.70
2014,04,14,14,26,11.70
2014,04,14,14,27,11.70
2014,04,14,14,28,11.70
2014,04,14,14,29,11.70
2014,04,14,14,30,11.70
2014,04,14,14,31,11.70
2014,04,14,14,32,11.80
2014,04,14,14,33,11.80
2014,04,14,14,34,11.80
2014,04,14,14,35,11.90
2014,04,14,14,36,12.00
2014,04,14,14,37,12.00
2014,04,14,14,38,12.00
2014,04,14,14,39,12.00
2014,04,14,14,40,12.10
2014,04,14,14,41,12.10
2014,04,14,14,42,12.20
2014,04,14,14,43,12.20
2014,04,14,14,44,12.20
2014,04,14,14,45,12.30
2014,04,14,14,46,12.30
2014,04,14,14,47,12.40
2014,04,14,14,48,12.40
2014,04,14,14,49,12.40
2014,04,14,14,50,12.50
2014,04,14,14,51,12.40
2014,04,14,14,52,12.40
2014,04,14,14,53,12.40
2014,04,14,14,54,12.40
2014,04,14,14,55,12.40
2014,04,14,14,56,12.40
2014,04,14,14,57,12.40
2014,04,14,14,58,12.50
2014,04,14,14,59,12.40
2014,04,14,15,00,12.40
2014,04,14,15,01,12.40
2014,04,14,15,02,12.40
2014,04,14,15,03,12.40
2014,04,14,15,04,12.30
2014,04,14,15,05,12.30
2014,04,14,15,06,12.20
2014,04,14,15,07,12.20
2014,04,14,15,08,12.10
2014,04,14,15,09,12.10
2014,04,14,15,10,12.10
2014,04,14,15,11,12.00
2014,04,14,15,12,12.00
2014,04,14,15,13,11.90
2014,04,14,15,14,11.90
2014,04,14,15,15,11.90
2014,04,14,15,16,11.90
2014,04,14,15,17,11.90
2014,04,14,15,18,11.90
2014,04,14,15,19,11.90
2014,04,14,15,20,11.90
2014,04,14,15,21,12.00
2014,04,14,15,22,12.10
2014,04,14,15,23,12.20
2014,04,14,15,24,12.30
2014,04,14,15,25,12.40
2014,04,14,15,26,12.50
2014,04,14,15,27,12.50
2014,04,14,15,28,12.60
2014,04,14,15,29,12.60
2014,04,14,15,30,12.70
2014,04,14,15,31,12.70
2014,04,14,15,32,12.80
2014,04,14,15,33,12.90
2014,04,14,15,34,12.90
2014,04,14,15,35,13.00
2014,04,14,15,36,13.00
2014,04,14,15,37,13.00
2014,04,14,15,38,13.00
2014,04,14,15,39,13.00
2014,04,14,15,40,13.00
2014,04,14,15,41,13.00
2014,04,14,15,42,12.90
2014,04,14,15,43,12.80
2014,04,14,15,44,12.80
2014,04,14,15,45,12.70
2014,04,14,15,46,12.70
2014,04,14,15,47,12.70
2014,04,14,15,48,12.70
2014,04,14,15,49,12.60
2014,04,14,15,50,12.60
2014,04,14,15,51,12.50
2014,04,14,15,52,12.50
2014,04,14,15,53,12.40
2014,04,14,15,54,12.30
2014,04,14,15,55,12.20
2014,04,14,15,56,12.10
2014,04,14,15,57,12.10
2014,04,14,15,58,12.10
2014,04,14,15,59,12.10
2014,04,14,16,00,12.10
2014,04,14,16,01,12.10
2014,04,14,16,02,12.10
2014,04,14,16,03,12.20
2014,04,14,16,04,12.20
2014,04,14,16,05,12.20
2014,04,14,16,06,12.20
2014,04,14,16,07,12.30
2014,04,14,16,08,12.30
2014,04,14,16,09,12.40
2014,04,14,16,10,12.40
2014,04,14,16,11,12.50
2014,04,14,16,12,12.50
2014,04,14,16,13,12.50
2014,04,14,16,14,12.50
2014,04,14,16,15,12.40
2014,04,14,16,16,12.40
2014,04,14,16,17,12.40
2014,04,14,16,18,12.30
2014,04,14,16,19,12.30
2014,04,14,16,20,12.20
2014,04,14,16,21,12.20
2014,04,14,16,22,12.10
2014,04,14,16,23,12.00
2014,04,14,16,24,12.00
2014,04,14,16,25,11.90
2014,04,14,16,26,11.90
2014,04,14,16,27,11.90
2014,04,14,16,28,11.90
2014,04,14,16,29,12.00
2014,04,14,16,30,12.00
2014,04,14,16,31,12.10
2014,04,14,16,32,12.10
2014,04,14,16,33,12.10
2014,04,14,16,34,12.10
2014,04,14,16,35,12.10
2014,04,14,16,36,12.20
2014,04,14,16,37,12.10
2014,04,14,16,38,12.10
2014,04,14,16,39,12.10
2014,04,14,16,40,12.10
2014,04,14,16,41,12.10
2014,04,14,16,42,12.20
2014,04,14,16,43,12.20
2014,04,14,16,44,12.20
2014,04,14,16,45,12.20
2014,04,14,16,46,12.20
2014,04,14,16,47,12.20
2014,04,14,16,48,12.30
2014,04,14,16,49,12.30
2014,04,14,16,50,12.30
2014,04,14,16,51,12.40
2014,04,14,16,52,12.40
2014,04,14,16,53,12.40
2014,04,14,16,54,12.40
2014,04,14,16,55,12.40
2014,04,14,16,56,12.40
2014,04,14,16,57,12.40
2014,04,14,16,58,12.50
2014,04,14,16,59,12.50
2014,04,14,17,00,12.60
2014,04,14,17,01,12.70
2014,04,14,17,02,12.80
2014,04,14,17,03,12.80
2014,04,14,17,04,12.90
2014,04,14,17,05,13.00
2014,04,14,17,06,13.10
2014,04,14,17,07,13.20
2014,04,14,17,08,13.30
2014,04,14,17,09,13.40
2014,04,14,17,10,13.50
2014,04,14,17,11,13.50
2014,04,14,17,12,13.60
2014,04,14,17,13,13.60
2014,04,14,17,14,13.60
2014,04,14,17,15,13.70
2014,04,14,17,16,13.70
2014,04,14,17,17,13.70
2014,04,14,17,18,13.70
2014,04,14,17,19,13.70
2014,04,14,17,20,13.60
2014,04,14,17,21,13.50
2014,04,14,17,22,13.40
2014,04,14,17,23,13.30
2014,04,14,17,24,13.30
2014,04,14,17,25,13.20
2014,04,14,17,26,13.20
2014,04,14,17,27,13.10
2014,04,14,17,28,13.00
2014,04,14,17,29,12.90
2014,04,14,17,30,12.90
2014,04,14,17,31,12.90
2014,04,14,17,32,12.90
2014,04,14,17,33,12.90
2014,04,14,17,34,12.90
2014,04,14,17,35,12.90
2014,04,14,17,36,12.90
2014,04,14,17,37,12.90
2014,04,14,17,38,12.90
2014,04,14,17,39,12.90
2014,04,14,17,40,12.90
2014,04,14,17,41,12.90
2014,04,14,17,42,12.90
2014,04,14,17,43,13.00
2014,04,14,17,44,12.90
2014,04,14,17,45,12.90
2014,04,14,17,46,12.90
2014,04,14,17,47,12.90
2014,04,14,17,48,12.90
2014,04,14,17,49,12.90